[[{"header":{"parameterUnit":"m.s-1","parameterCategory":1,"la1":30.2991,"la2":30.254,"lo1":-89.0895,"lo2":-89.0444,"dy":0.0017,"dx":0.0017,"nx":28,"ny":28,"refTime":"2025-08-27T03:00:00:Z","depth":0,"parameterNumber":2,"parameterNumberName":"U-component_of_WINDS"},"data":[0,0,0,0,0,0,0,0,0,0,0,0,0,0,0,0,0,0,0,0,0,0,0,0,0,0,0,0,0,0,0,0,0,0,0,0,0,0,0,0,0,0,0,0,0,0,0,0,0,0,0,0,0,0,0,0,0,0,-2.965,-2.9649,0,-2.9631,-2.9631,-2.9631,-2.9542,-2.954,-2.9538,-2.9536,-2.9519,-2.9521,-2.9522,0,0,0,0,0,0,0,0,0,0,0,0,0,-2.9609,-2.961,-2.965,-2.9649,-2.9649,-2.9631,-2.9631,-2.9631,-2.9542,-2.954,-2.9537,-2.9535,-2.9519,-2.9521,-2.9523,0,0,0,0,0,0,0,0,0,0,0,0,0,-2.9613,-2.9611,-2.965,-2.9603,-2.9598,-2.9631,-2.9631,-2.9631,-2.9543,-2.9539,-2.9536,-2.9533,-2.9518,-2.9521,-2.9523,-2.9601,0,0,-2.953,-2.9531,0,0,0,0,0,0,0,0,-2.9612,-2.9614,-2.961,-2.9606,-2.9601,-2.9585,-2.9611,-2.9621,-2.9543,-2.9564,-2.9535,-2.9532,-2.9544,-2.9544,-2.9548,-2.96,-2.9599,-2.953,-2.9532,-2.9533,-2.9533,0,0,0,0,0,0,0,-2.9612,-2.9614,-2.9642,-2.961,-2.9604,-2.9583,-2.958,-2.9612,-2.9572,-2.9562,-2.9555,-2.9554,-2.9541,-2.9546,-2.9547,-2.9599,-2.953,-2.9532,-2.9534,-2.9535,-2.9714,-2.9718,0,0,0,0,0,0,-2.9618,-2.9615,-2.9643,-2.9642,-2.9599,-2.9586,-2.9583,-2.9594,-2.9572,-2.9565,-2.9557,-2.955,-2.9543,-2.9544,-2.9546,-2.9636,-2.9533,-2.9535,-2.9536,-2.9711,-2.9715,-2.9719,0,0,0,0,0,0,-2.9618,-2.9622,-2.9644,-2.9627,-2.9628,-2.959,-2.9603,-2.9595,-2.96,-2.9568,-2.956,-2.9569,-2.9541,-2.9543,-2.9588,-2.9634,-2.9536,-2.9538,-2.9707,-2.9712,-2.9717,-2.9817,0,0,0,0,0,0,-2.9617,-2.9622,-2.9651,-2.9628,-2.9629,-2.9686,-2.9606,-2.9597,-2.9604,-2.9594,-2.9577,-2.9571,-2.9539,-2.9585,-2.959,-2.9636,-2.954,-2.9703,-2.9709,-2.9715,-2.9809,-2.9825,-2.9838,0,0,0,0,0,-2.9616,-2.9681,-2.9653,-2.9657,-2.9664,-2.9689,-2.9689,-2.965,-2.9608,-2.9637,-2.9616,-2.9572,-2.9628,-2.959,-2.9595,-2.9642,-2.97,-2.9707,-2.9715,-2.9803,-2.9822,-2.9838,0,0,0,0,0,0,-2.9711,-2.9677,-2.9646,-2.9705,-2.97,-2.9673,-2.9709,-2.9671,-2.9679,-2.967,-2.9621,-2.9618,-2.9671,-2.966,-2.9619,-2.9716,-2.9656,-2.9665,-2.9721,-2.9739,-2.9753,-2.9755,-2.9542,0,0,0,0,0,-2.9739,-2.9761,-2.973,-2.9785,-2.9784,-2.9747,-2.9756,-2.9726,-2.9719,-2.9717,-2.97,-2.9696,-2.9713,-2.9725,-2.9739,-2.9807,-2.9802,-2.9842,-2.9856,-2.9868,-2.9877,-2.9913,-2.993,-2.9744,-2.9744,-2.9744,0,0,-2.9797,-2.9781,-2.9798,-2.9803,-2.9796,-2.9821,-2.9746,-2.9775,-2.9793,-2.9722,-2.9763,-2.9751,-2.9743,-2.98,-2.9825,-2.9794,-2.9927,-2.9878,-2.9888,-2.989,-2.9922,-2.994,-2.9956,-2.9749,-2.9748,-2.9747,0,0,-2.9915,-2.9905,-2.9949,-2.9943,-2.9933,-2.9908,-2.9919,-2.9898,-2.9886,-2.9927,-2.9874,-2.9895,-2.9924,-2.9921,-2.9924,-3.004,-3.0,-3.0045,-3.0121,-3.0157,-3.0171,-3.0184,-3.0227,-3.0242,-3.0054,-3.0054,-3.0054,0,-2.9989,-3.0023,-2.9977,-3.001,-3.0014,-2.9949,-2.9995,-2.9991,-2.9987,-2.9992,-2.9956,-2.9992,-2.9983,-3.0038,-3.0067,-3.007,-3.0082,-3.0048,-3.0173,-3.0185,-3.0196,-3.0236,-3.0252,-3.006,-3.0059,-3.0059,-3.0058,0,-3.0114,-3.0139,-3.0176,-3.0172,-3.018,-3.022,-3.018,-3.0194,-3.0163,-3.0142,-3.0184,-3.017,-3.018,-3.019,-3.016,-3.0242,-3.0223,-3.0181,-3.012,-3.0221,-3.0257,-3.0272,-3.0068,-3.0066,-3.0064,-3.0063,0,0,-3.0294,-3.0263,-3.0278,-3.0275,-3.0259,-3.0277,-3.0313,-3.0321,-3.0335,-3.0333,-3.0363,-3.0389,-3.035,-3.0353,-3.0321,-3.0352,-3.0446,-3.0306,-3.0306,-3.0334,-3.0536,-3.0569,-3.0587,-3.0419,-3.0421,-3.0424,-3.0537,0,-3.0408,-3.0467,-3.0427,-3.0493,-3.0515,-3.0453,-3.0484,-3.0478,-3.0459,-3.0476,-3.0454,-3.0474,-3.042,-3.0422,-3.0449,-3.0429,-3.0487,-3.042,-3.0447,-3.0449,-3.0452,-3.0606,-3.0641,-3.0749,-3.0551,-3.0554,-3.0555,0,-3.0549,-3.0553,-3.0621,-3.06,-3.0608,-3.0636,-3.0641,-3.0657,-3.0648,-3.0632,-3.0635,-3.0596,-3.063,-3.0569,-3.0616,-3.0571,-3.058,-3.0571,-3.0575,-3.0577,-3.0509,-3.0614,-3.0783,-3.08,-3.0577,-3.0576,-3.0574,0,-3.0675,-3.0697,-3.0741,-3.074,-3.0716,-3.0738,-3.0729,-3.0717,-3.0724,-3.0728,-3.0733,-3.0741,-3.0746,-3.0754,-3.0718,-3.0676,-3.077,-3.0705,-3.0759,-3.076,-3.0783,-3.0782,-3.0957,-3.0786,-3.0786,-3.0786,-3.0785,0,-3.0808,-3.0852,-3.0797,-3.0824,-3.0872,-3.0825,-3.0874,-3.0858,-3.0848,-3.0871,-3.0818,-3.0842,-3.0792,-3.0811,-3.0783,-3.0827,-3.0829,-3.0818,-3.081,-3.0823,-3.0825,-3.0829,-3.0822,-3.079,-3.0789,-3.0788,-3.0787,0,-3.0957,-3.0922,-3.0965,-3.0938,-3.0932,-3.0969,-3.0946,-3.097,-3.0946,-3.0977,-3.0981,-3.0945,-3.0964,-3.0929,-3.0943,-3.0924,-3.0986,-3.0966,-3.0989,-3.0984,-3.104,-3.1036,-3.1224,-3.1247,-3.1061,-3.1063,-3.1064,0,-3.1045,-3.1077,-3.1053,-3.1064,-3.1058,-3.1077,-3.1084,-3.1039,-3.1048,-3.1041,-3.1066,-3.108,-3.1089,-3.1123,-3.1098,-3.1109,-3.109,-3.1155,-3.1091,-3.1104,-3.1092,-3.1092,-3.1095,-3.1169,-3.1171,-3.1173,-3.1175,0,-3.1204,-3.1185,-3.1196,-3.1202,-3.1212,-3.1215,-3.1213,-3.1226,-3.1178,-3.1191,-3.1209,-3.1216,-3.1231,-3.1246,-3.1251,-3.1242,-3.1202,-3.1195,-3.1208,-3.1223,-3.1235,-3.123,-3.1027,-3.1191,-3.1189,-3.1188,-3.1187,-3.1187,-3.1326,-3.1352,-3.1339,-3.1354,-3.1348,-3.1348,-3.1369,-3.1348,-3.1362,-3.1369,-3.1341,-3.1366,-3.1356,-3.1359,-3.1354,-3.1373,-3.1345,-3.1363,-3.1368,-3.1374,-3.1384,-3.1231,-3.1374,-3.1374,-3.1373,-3.1373,-3.1372,0,-3.1484,-3.1472,-3.1486,-3.1486,-3.1497,-3.1456,-3.1452,-3.1465,-3.1487,-3.1481,-3.149,-3.1511,-3.1526,-3.1502,-3.1512,-3.1532,-3.1514,-3.1537,-3.1536,-3.1535,-3.1408,-3.1397,-3.1552,-3.1552,-3.1552,-3.1552,-3.1551,-3.1551,-3.1568,-3.161,-3.1589,-3.1627,-3.1615,-3.1638,-3.1639,-3.1639,-3.1634,-3.166,-3.1671,-3.1654,-3.1641,-3.165,-3.1662,-3.1654,-3.1661,-3.1691,-3.1678,-3.1561,-3.1543,-3.1527,-3.1515,-3.1693,-3.1693,-3.1802,-3.1803,-3.1804]},{"header":{"parameterUnit":"m.s-1","parameterCategory":1,"la1":30.2991,"la2":30.254,"lo1":-89.0895,"lo2":-89.0444,"dy":0.0017,"dx":0.0017,"nx":28,"ny":28,"refTime":"2025-08-27T03:00:00:Z","depth":0,"parameterNumber":3,"parameterNumberName":"V-component_of_WINDS"},"data":[0,0,0,0,0,0,0,0,0,0,0,0,0,0,0,0,0,0,0,0,0,0,0,0,0,0,0,0,0,0,0,0,0,0,0,0,0,0,0,0,0,0,0,0,0,0,0,0,0,0,0,0,0,0,0,0,0,0,-1.988,-1.9881,0,-1.9905,-1.9905,-1.9905,-1.9872,-1.9871,-1.987,-1.9868,-1.9894,-1.9895,-1.9897,0,0,0,0,0,0,0,0,0,0,0,0,0,-1.9805,-1.9807,-1.988,-1.9881,-1.9881,-1.9904,-1.9905,-1.9905,-1.9872,-1.9871,-1.9869,-1.9868,-1.9893,-1.9895,-1.9897,0,0,0,0,0,0,0,0,0,0,0,0,0,-1.9834,-1.9807,-1.988,-1.9867,-1.9866,-1.9904,-1.9905,-1.9905,-1.9872,-1.9871,-1.9869,-1.9867,-1.9892,-1.9895,-1.9898,-1.995,0,0,-1.9906,-1.9907,0,0,0,0,0,0,0,0,-1.9833,-1.9837,-1.9869,-1.9868,-1.9867,-1.9883,-1.9887,-1.992,-1.9873,-1.987,-1.9868,-1.9866,-1.9892,-1.9894,-1.9903,-1.9951,-1.9952,-1.9906,-1.9908,-1.9909,-1.9909,0,0,0,0,0,0,0,-1.9831,-1.9836,-1.989,-1.9869,-1.9869,-1.986,-1.9862,-1.9893,-1.9891,-1.987,-1.9868,-1.9871,-1.9891,-1.99,-1.9903,-1.9952,-1.9906,-1.9908,-1.991,-1.9911,-2.0043,-2.0045,0,0,0,0,0,0,-1.983,-1.9834,-1.9889,-1.9891,-1.9845,-1.9863,-1.9865,-1.988,-1.989,-1.989,-1.9873,-1.987,-1.9897,-1.99,-1.9904,-1.9965,-1.9909,-1.9911,-1.9913,-2.0041,-2.0043,-2.0045,0,0,0,0,0,0,-1.9829,-1.9836,-1.9888,-1.9862,-1.9868,-1.9866,-1.9883,-1.9881,-1.9891,-1.9892,-1.9891,-1.9883,-1.9895,-1.99,-1.9938,-1.9965,-1.9912,-1.9915,-2.0039,-2.0042,-2.0044,-2.0088,0,0,0,0,0,0,-1.9827,-1.9835,-1.9855,-1.9863,-1.987,-1.9923,-1.9885,-1.9883,-1.9895,-1.9892,-1.9901,-1.9901,-1.9894,-1.9934,-1.9941,-1.9968,-1.9917,-2.0036,-2.004,-2.0043,-2.0084,-2.0092,-2.0098,0,0,0,0,0,-1.9824,-1.9867,-1.9856,-1.9863,-1.9895,-1.9924,-1.9928,-1.9919,-1.9898,-1.9918,-1.9918,-1.9901,-1.9961,-1.9939,-1.9945,-1.9974,-2.0034,-2.0039,-2.0043,-2.0081,-2.009,-2.0098,0,0,0,0,0,0,-1.9863,-1.9868,-1.9856,-1.9902,-1.9913,-1.9919,-1.9944,-1.993,-1.9947,-1.9943,-1.993,-1.9933,-1.9974,-1.9977,-1.9952,-2.0024,-1.9994,-2.0,-2.002,-2.003,-2.0037,-2.0035,-1.9919,0,0,0,0,0,-1.9877,-1.9901,-1.9903,-1.9944,-1.995,-1.9946,-1.9958,-1.995,-1.9961,-1.9965,-1.9969,-1.998,-2.0001,-2.0015,-2.0035,-2.0084,-2.0085,-2.0107,-2.0114,-2.012,-2.0125,-2.0151,-2.016,-2.0059,-2.0059,-2.0059,0,0,-1.9906,-1.9912,-1.9927,-1.9952,-1.9959,-1.9984,-1.995,-1.9978,-1.9996,-1.997,-2.0006,-2.0008,-2.002,-2.0063,-2.0083,-2.0068,-2.0153,-2.0125,-2.013,-2.0132,-2.0156,-2.0166,-2.0174,-2.0062,-2.0062,-2.0061,0,0,-1.9972,-1.9979,-2.0013,-2.002,-2.0032,-2.0029,-2.0037,-2.0044,-2.0045,-2.008,-2.0061,-2.0082,-2.0119,-2.0128,-2.0137,-2.0204,-2.0189,-2.0211,-2.025,-2.0274,-2.0282,-2.0289,-2.0313,-2.0322,-2.0216,-2.0217,-2.0217,0,-2.0007,-2.0044,-2.0032,-2.0061,-2.0072,-2.0049,-2.0083,-2.0091,-2.0108,-2.0116,-2.0099,-2.0144,-2.015,-2.0195,-2.0212,-2.022,-2.0229,-2.021,-2.0282,-2.0289,-2.0295,-2.0318,-2.0327,-2.0219,-2.0219,-2.0219,-2.0218,0,-2.0086,-2.0111,-2.0137,-2.0154,-2.0168,-2.0199,-2.0192,-2.0208,-2.0198,-2.0196,-2.0233,-2.0239,-2.0259,-2.0269,-2.026,-2.0312,-2.0303,-2.0284,-2.0254,-2.0308,-2.0329,-2.0338,-2.0223,-2.0222,-2.0221,-2.022,0,0,-2.0178,-2.0187,-2.0197,-2.0204,-2.0214,-2.0233,-2.0263,-2.0282,-2.0295,-2.0308,-2.0332,-2.0363,-2.0346,-2.0356,-2.0348,-2.037,-2.0422,-2.0348,-2.0348,-2.0362,-2.048,-2.0494,-2.0504,-2.0412,-2.0413,-2.0414,-2.0479,0,-2.0244,-2.0295,-2.0285,-2.0336,-2.0359,-2.0336,-2.0362,-2.0371,-2.037,-2.0389,-2.0388,-2.041,-2.0385,-2.0391,-2.0412,-2.0412,-2.0446,-2.0407,-2.0434,-2.0436,-2.0433,-2.0515,-2.0531,-2.0591,-2.0487,-2.0488,-2.0489,0,-2.0327,-2.0342,-2.0395,-2.04,-2.0409,-2.0433,-2.0449,-2.0468,-2.0477,-2.0475,-2.0486,-2.0473,-2.0502,-2.0471,-2.051,-2.0484,-2.0495,-2.0496,-2.0498,-2.0501,-2.0466,-2.0521,-2.061,-2.062,-2.0502,-2.0501,-2.05,0,-2.0389,-2.0422,-2.0458,-2.0465,-2.0472,-2.0489,-2.0492,-2.05,-2.0512,-2.0526,-2.0533,-2.055,-2.056,-2.0574,-2.0566,-2.0544,-2.0607,-2.0575,-2.0606,-2.0606,-2.0621,-2.062,-2.0714,-2.0627,-2.0627,-2.0627,-2.0626,0,-2.0464,-2.0497,-2.0486,-2.0508,-2.0544,-2.0532,-2.0568,-2.0569,-2.0575,-2.0596,-2.0578,-2.0598,-2.0586,-2.0606,-2.0599,-2.0633,-2.0638,-2.0636,-2.0634,-2.0638,-2.0639,-2.0646,-2.0641,-2.0629,-2.0628,-2.0628,-2.0628,0,-2.054,-2.0534,-2.0571,-2.0574,-2.0576,-2.0602,-2.0605,-2.0625,-2.0622,-2.0649,-2.0655,-2.065,-2.0672,-2.0665,-2.0689,-2.0684,-2.0727,-2.072,-2.0724,-2.0722,-2.0753,-2.0751,-2.0855,-2.0868,-2.0773,-2.0774,-2.0775,0,-2.0588,-2.0613,-2.0619,-2.0631,-2.0636,-2.0658,-2.0669,-2.0658,-2.0671,-2.0682,-2.0701,-2.0721,-2.0736,-2.0772,-2.0771,-2.0788,-2.0781,-2.0816,-2.0784,-2.0787,-2.0782,-2.0781,-2.0783,-2.0823,-2.0824,-2.0825,-2.0826,0,-2.0674,-2.067,-2.0687,-2.0704,-2.0718,-2.0731,-2.0741,-2.0753,-2.0742,-2.0757,-2.0779,-2.0791,-2.0814,-2.0834,-2.085,-2.0853,-2.0838,-2.0836,-2.0844,-2.0849,-2.0851,-2.085,-2.0742,-2.0834,-2.0833,-2.0833,-2.0832,-2.0832,-2.0738,-2.0759,-2.0766,-2.0786,-2.0792,-2.0802,-2.0821,-2.082,-2.0838,-2.0856,-2.0848,-2.0873,-2.088,-2.09,-2.0905,-2.0924,-2.0911,-2.0923,-2.0926,-2.0929,-2.0933,-2.0847,-2.0927,-2.0927,-2.0927,-2.0927,-2.0926,0,-2.0823,-2.0826,-2.0845,-2.086,-2.0875,-2.0859,-2.0869,-2.0884,-2.0906,-2.0914,-2.0929,-2.0954,-2.0973,-2.0972,-2.099,-2.1005,-2.0998,-2.101,-2.1009,-2.101,-2.0944,-2.0935,-2.1015,-2.1015,-2.1015,-2.1015,-2.1015,-2.1015,-2.087,-2.0904,-2.09,-2.0936,-2.0939,-2.0963,-2.0971,-2.098,-2.0986,-2.1014,-2.103,-2.1029,-2.1033,-2.1051,-2.1067,-2.1067,-2.1074,-2.1088,-2.1085,-2.1024,-2.1015,-2.1006,-2.0998,-2.109,-2.109,-2.115,-2.115,-2.1151]}]]